GW0092 Weather Reports


time (UTC)temp
F
wind
direction
speed
knots
gust
knots
rain 1hr
in
rain 24hr
in
rain mn
in
humidity
%
barometer
mb
20260904110110 72 315 0.9 1.7 0.01 0.39 0.39 99 1013.4
20260904104604 72 0 0.0 2.6 0.01 0.39 0.39 99 1013.1
20260904103101 72 0 0.0 2.6 0.01 0.39 0.39 99 1013.0
20260904101615 72 0 0.0 0.0 0.00 0.38 0.38 99 1012.9
20260904094604 73 145 0.9 2.6 0.00 0.38 0.38 100 1012.8
20260904093118 73 0 0.0 0.0 0.00 0.38 0.38 100 1012.4
20260904091601 73 0 0.0 0.0 0.01 0.38 0.38 99 1012.8
20260904090059 73 0 0.0 0.0 0.02 0.38 0.38 99 1012.7
20260904084603 73 0 0.0 0.0 0.03 0.38 0.38 99 1012.7
20260904083105 74 0 0.0 0.0 0.05 0.38 0.38 99 1012.9
20260904081601 74 0 0.0 1.7 0.06 0.37 0.37 100 1013.2
20260904074603 74 0 0.0 0.9 0.11 0.35 0.35 99 1013.9
20260904073101 74 0 0.0 0.9 0.21 0.33 0.33 99 1013.9
20260904071601 74 0 0.0 2.6 0.28 0.31 0.31 99 1013.8
20260904070107 74 122 0.0 5.2 0.28 0.28 0.28 99 1015.2
20260904064602 74 313 3.5 11.3 0.24 0.24 0.24 98 1016.2
20260904063101 74 330 4.3 10.4 0.12 0.12 0.12 98 1015.8
20260904061600 75 333 7.0 15.6 0.03 0.03 0.03 97 1015.3
20260904060057 78 295 4.3 12.2 0.00 0.00 0.00 96 1014.4
20260904054604 77 359 0.0 1.7 0.00 0.00 0.00 100 1014.1
20260904053102 77 0 0.0 0.0 0.00 0.00 0.00 100 1012.8
20260904051604 77 0 0.0 0.0 0.00 0.00 0.00 100 1013.4
20260904050104 77 0 0.0 0.0 0.00 0.00 0.00 100 1013.2
20260904044610 77 0 0.0 0.0 0.00 0.00 0.00 100 1013.4
20260904043059 77 0 0.0 0.0 0.00 0.00 0.00 100 1013.4
20260904041604 77 0 0.0 0.0 0.00 0.00 0.00 100 1013.3
20260904040104 78 0 0.0 0.0 0.00 0.00 0.00 100 1013.7
20260904034601 78 0 0.0 0.0 0.00 0.00 0.00 100 1014.0
20260904033059 78 0 0.0 0.0 0.00 0.00 0.00 99 1014.1
20260904031553 77 0 0.0 0.0 0.00 0.00 0.00 99 1014.2
20260904030103 78 0 0.0 0.0 0.00 0.00 0.00 99 1013.8
20260904024601 78 0 0.0 0.0 0.00 0.00 0.00 99 1013.9
20260904023103 78 0 0.0 0.0 0.00 0.00 0.00 99 1013.9
20260904021602 78 0 0.0 0.0 0.00 0.00 0.00 99 1013.9
20260904020101 78 0 0.0 0.0 0.00 0.00 0.00 99 1014.3
20260904014600 78 0 0.0 0.0 0.00 0.00 0.00 99 1014.5
20260904013102 78 0 0.0 0.0 0.00 0.00 0.00 99 1014.8
20260904011613 78 0 0.0 0.0 0.00 0.00 0.00 99 1015.1
20260904010108 78 0 0.0 0.0 0.00 0.00 0.00 98 1015.1
20260904004603 78 0 0.0 0.0 0.00 0.00 0.00 98 1014.9
20260904003102 79 0 0.0 0.0 0.00 0.00 0.00 97 1014.8
20260904001558 79 0 0.0 0.0 0.00 0.00 0.00 96 1014.6
20260903234604 80 0 0.0 0.0 0.00 0.00 0.00 95 1014.1
20260903233102 81 0 0.0 0.0 0.00 0.00 0.00 94 1014.0
20260903231601 82 0 0.0 0.0 0.00 0.00 0.00 93 1014.1
20260903230104 82 0 0.0 0.0 0.00 0.00 0.00 92 1013.9
20260903224602 83 0 0.0 0.0 0.00 0.00 0.00 90 1013.9
20260903223058 84 0 0.0 0.9 0.00 0.00 0.00 88 1013.9
20260903221604 85 0 0.0 0.9 0.00 0.00 0.00 86 1014.1
20260903220123 85 0 0.9 4.3 0.00 0.00 0.00 85 1014.1
20260903214600 86 78 0.0 4.3 0.00 0.00 0.00 84 1014.2
20260903213101 87 0 0.0 3.5 0.00 0.00 0.00 82 1014.3
20260903211558 88 321 0.9 4.3 0.00 0.00 0.00 81 1014.4
20260903210109 88 8 0.0 4.3 0.00 0.00 0.00 81 1014.4
20260903204600 88 18 1.7 4.3 0.00 0.00 0.00 81 1014.6
20260903203130 87 47 0.9 6.1 0.00 0.00 0.00 80 1014.6
20260903201606 88 62 0.9 5.2 0.00 0.00 0.00 80 1014.9
20260903200104 88 0 0.0 3.5 0.00 0.00 0.00 81 1014.7
20260903194602 86 304 0.9 6.1 0.00 0.00 0.00 81 1015.0
20260903193101 86 294 1.7 5.2 0.00 0.00 0.00 83 1015.1
20260903191604 85 0 0.9 4.3 0.00 0.00 0.00 86 1015.2
20260903184601 85 0 0.0 3.5 0.00 0.00 0.00 87 1015.6
20260903183102 85 343 0.9 2.6 0.00 0.00 0.00 86 1015.7
20260903181600 85 0 0.9 3.5 0.00 0.00 0.00 87 1016.0
20260903180107 84 123 0.0 0.9 0.00 0.00 0.00 89 1015.8
20260903174609 83 0 0.0 0.9 0.00 0.00 0.00 90 1016.1
20260903173101 84 0 0.0 2.6 0.00 0.00 0.00 87 1015.9
20260903171615 85 150 0.9 1.7 0.00 0.00 0.00 87 1016.2
20260903170107 85 0 0.0 3.5 0.00 0.00 0.00 86 1016.2
20260903164637 85 70 0.0 4.3 0.00 0.00 0.00 83 1016.5
20260903163103 85 0 0.9 2.6 0.00 0.00 0.00 88 1016.7
20260903161608 84 86 0.0 3.5 0.00 0.00 0.00 84 1016.8
20260903160105 83 77 0.9 3.5 0.00 0.00 0.00 86 1017.1
20260903154602 83 143 0.9 2.6 0.00 0.00 0.00 89 1017.3
20260903153126 82 93 0.0 4.3 0.00 0.00 0.00 90 1017.0
20260903151601 81 0 0.0 2.6 0.00 0.00 0.00 90 1016.8
20260903150101 81 131 1.7 4.3 0.00 0.00 0.00 91 1016.9
20260903144606 81 110 0.9 4.3 0.00 0.00 0.00 91 1017.0
20260903143105 80 127 0.9 3.5 0.00 0.00 0.00 95 1016.8
20260903141602 79 117 0.0 2.6 0.00 0.00 0.00 97 1017.0
20260903140105 78 248 0.0 1.7 0.00 0.00 0.00 99 1017.2
20260903134611 77 129 0.0 1.7 0.00 0.00 0.00 100 1017.5
20260903133103 76 319 0.0 0.9 0.00 0.00 0.00 100 1017.8
20260903131606 75 0 0.0 0.9 0.00 0.00 0.00 100 1017.8
20260903124610 74 0 0.0 0.9 0.00 0.00 0.00 100 1018.6
20260903123104 74 0 0.0 0.9 0.00 0.00 0.00 100 1018.6
20260903121615 73 0 0.0 0.0 0.00 0.00 0.00 100 1018.5
20260903120110 73 0 0.0 0.0 0.00 0.00 0.00 100 1018.6
20260903114601 73 0 0.0 0.0 0.00 0.00 0.00 100 1018.4
20260903113144 72 0 0.0 0.9 0.00 0.00 0.00 100 1018.2
20260903111602 72 0 0.0 0.9 0.00 0.00 0.00 100 1018.0